Location: Pedholt
(56.0260°N, 10.2097°E)
Time: 20:43:23
(UTC+00:00)

Tiros 1 - Pass Details

Date: 01 August 2021
Orbit: 630 x 663 km, 48.4° (Epoch: 19 September)

Event Time Altitude Azimuth Distance (km) Brightness Sun altitude
Rises 21:27:44 0° 266° (W) 2,971 10.9 -12.1°
Reaches altitude 10° 21:30:23 10° 254° (WSW) 2,053 9.9 -12.3°
Maximum altitude 21:34:16 26° 198° (SSW) 1,276 8.3 -12.6°
Enters shadow 21:36:19 19° 160° (SSE) 1,525 8.4 -12.7°
Drops below altitude 10° 21:38:08 10° 142° (SE) 2,030 - -12.8°
Sets 21:40:44 0° 130° (SE) 2,932 - -13.0°
